Terminal Aerodrome Forecast
Issued by NWS Aberdeen, SD

Home | Current Version | Previous Version | Text Only | Print | Product List | Glossary On
Versions: 1 2 3 4 5 6 7 8 9 10 11 12 13 14 15 16 17 18 19 20 21 22 23 24 25 26 27 28 29 30 31 32 33 34 35 36 37 38 39 40 41 42 43 44 45 46 47 48 49 50
000
FTAK31 PAFA 030540
TAFABR
TAF
PABR 030540Z 0306/0406 11022KT 1 1/2SM BLSN SCT005 OVC090
     FM030900 10020KT 2SM BR BLSN SCT005 OVC060
     FM031800 14015KT 1 1/2SM -SHSN BR SCT025 OVC050
     FM040000 24020G28KT 1SM -SHSN BLSN BR OVC050=

USA.gov is the U.S. government's official web portal to all federal, state and local government web resources and services.